SCP
0 0 0 0 0 0 0 0 0 0 0 0 0 0 0 0 0 0 0 0 0 0 0 0 0 0 0 0 0 0 0 0 0 0 0 0 0 0
0 0 0 0 0 0 0 0 0 0 0 0 0 0 0 0 0 0 0 0 0 0 0 0 0 0 0 0 0 0 0 0 0 0 0 0 0 0
0 0 0 0 0 0 0 0 0 0 0 0 0 0 0 0 0 0 0 0 0 0 0 0 0 0 0 0 0 0 0 0 0 0 0 0 0 0
0 0 0 0 0 0 0 0 0 0 0 0 0 0 0 0 0 0 0 0 0 0 0 0 0 0 0 0 0 0 0 0 0 0 0 0 0 0
0 0 0 0 0 0 0 0 0 0 0 0 0 0 0 0 0 0 0 0 0 0 0 0 0 0 0 0 0 0 0 0 0 0 0 0 0 0
0 0 0 0 0 0 0 0 0 0 0 0 0 0 0 0 0 0 0 0 0 0 0 0 0 0 0 0 0 0 0 0 0 0 0 0 0 0
0 0 0 0 0 0 0 0 0 0 0 0 0 0 0 0 0 0 0 0 0 0 0 0 0 0 0 0 0 0 0 0 0 0 0 0 0 0
0 0 0 0 0 0 0 0 0 0 0 0 0 0 0 0 0 0 0 0 0 0 0 0 0 0 0 0 0 0 0 0 0 0 0 0 0 0
0 0 0 0 0 0 0 0 0 0 0 0 0 0 0 0 0 0 0 0 0 0 0 0 0 0 0 0 0 0 0 0 0 0 0 0 0 0
0 0 0 0 0 0 0 0 0 0 0 0 0 0 0 0 0 0 0 0 0 0 0 0 0 0 0 0 0 0 0 0 0 0 0 0 0 0
0 0 0 0 0 0 0 0 0 0 0 0 0 0 0 0 0 0 0 0 0 0 0 0 0 0 0 0 0 0 0 0 0 0 0 0 0 0
0 0 0 0 0 0 0 0 0 0 0 0 0 0 0 0 0 0 0 0 0 0 0 0 0 0 0 0 0 0 0 0 0 0 0 0 0 0
0 0 0 0 0 0 0 0 0 0 0 0 0 0 0 0 0 0 0 0 0 0 0 0 0 0 0 0 0 0 0 0 0 0 0 0 0 0
0 0 0 0 0 0 0 0 0 0 0 0 0 0 0 0 0 0 0 0 0 0 0 0 0 0 0 0 0 0 0 0 0 0 0 0 0 0
0 0 0 0 0 0 0 0 0 0 0 0 0 0 0 0 0 0 0 0 0 0 0 0 0 0 0 0 0 0 0 0 0 0 0 0 0 0
0 0 0 0 0 0 0 0 0 0 0 0 0 0 0 0 0 0 0 0 0 0 0 0 0 0 0 0 0 0 0 0 0 0 0 0 0 0
0 0 0 0 0 0 0 0 0 0 0 0 0 0 0 0 0 0 0 0 0 0 0 0 0 0 0 0 0 0 0 0 0 0 0 0 0 0
0 0 0 0 0 0 0 0 0 0 0 0 0 0 0 0 0 0 0 0 0 0 0 0 0 0 0 0 0 0 0 0 0 0 0 0 0 0
0 0 0 0 0 0 0 0 0 0 0 0 0 0 0 0 0 0 0 0 0 0 0 0 0 0 0 0 0 0 0 0 0 0 0 0 0 0
0 0 0 0 0 0 0 0 0 0 0 0 0 0 0 0 0 0 0 0 0 0 0 0 0 0 0 0 0 0 0 0 0 0 0 0 0 0
0 0 0 0 0 0 0 0 0 0 0 0 0 0 0 0 0 0 0 0 0 0 0 0 0 0 0 0 0 0 0 0 0 0 0 0 0 0
0 0 0 0 0 0 0 0 0 0 0 0 0 0 0 0 0 0 0 0 0 0 0 0 0 0 0 0 0 0 0 0 0 0 0 0 0 0
0 0 0 0 0 0 0 0 0 0 0 0 0 0 0 0 0 0 0 0 0 0 0 0 0 0 0 0 0 0 0 0 0 0 0 0 0 0
Wind_Speed
6 7 6 5 5 5 4 4 5 6 7 5 4 5 5 5 7 7 7 11 13 13 13 11 10 9 9 8 8 8 7 6 6 6 5 5 5 5
5 6 6 5 5 5 5 5 5 6 7 5 4 4 5 5 8 7 8 12 13 14 13 12 11 10 10 9 8 8 8 7 7 7 6 6 6 5
6 7 7 6 5 6 6 6 6 5 7 5 3 3 6 7 6 6 6 7 8 13 14 13 13 12 11 10 10 9 9 8 8 7 7 6 6 6
6 6 7 6 7 6 6 7 7 6 6 7 4 3 5 7 7 6 5 6 6 11 14 14 14 13 12 11 11 10 9 8 7 7 7 7 6 6
6 6 6 6 7 5 6 6 5 5 5 5 5 3 3 4 5 5 5 5 5 8 13 13 13 13 13 13 12 11 9 8 8 7 6 6 6 6
5 6 6 6 7 7 6 6 6 6 5 5 4 4 3 4 4 5 5 5 5 5 8 9 11 13 14 14 12 11 10 9 9 8 7 6 5 6
5 5 6 7 8 8 6 6 6 6 6 6 6 4 5 4 6 4 6 4 5 5 5 6 6 7 8 11 12 12 11 10 10 9 8 7 6 6
5 5 5 6 8 9 11 11 10 9 8 7 7 8 8 7 5 5 5 5 6 5 6 6 6 7 6 6 11 13 12 11 11 10 10 8 8 7
4 5 5 5 7 7 9 10 11 13 13 10 9 9 8 7 7 8 7 7 6 5 5 6 5 7 5 7 13 14 13 12 12 11 10 10 9 8
4 4 5 6 6 7 7 7 8 8 9 9 9 9 9 8 9 9 9 5 2 3 5 5 4 4 4 5 11 13 13 12 12 12 12 11 10 9
5 5 5 6 8 8 6 7 8 7 8 9 10 10 10 10 8 5 5 5 4 4 3 3 3 2 2 3 7 12 12 12 13 13 13 12 10 9
5 5 7 8 9 9 6 6 8 7 5 6 7 8 7 8 10 9 7 6 4 4 4 4 3 3 2 2 3 5 6 10 12 13 12 12 11 6
5 5 5 11 10 9 8 5 7 7 5 5 5 4 4 5 6 6 6 6 5 4 5 5 3 3 3 2 2 3 5 4 5 7 10 12 12 9
5 5 6 11 10 9 6 7 8 6 3 3 3 4 4 4 3 3 3 3 3 4 6 6 4 5 5 3 3 3 4 4 4 4 4 9 9 10
5 9 10 11 9 6 7 8 6 3 3 3 4 4 3 2 1 1 0 0 1 1 3 3 3 4 4 4 4 5 4 4 4 5 5 4 4 5
5 7 9 8 6 6 5 4 3 3 3 3 3 3 2 1 1 1 1 2 1 1 1 1 3 4 3 3 5 5 5 6 6 5 5 4 3 4
6 4 3 4 4 4 4 3 3 3 3 3 2 2 2 2 1 1 1 2 2 2 1 1 3 3 2 3 4 5 5 4 5 6 5 4 3 4
6 4 4 4 4 4 5 4 3 3 3 3 2 2 2 2 1 1 1 1 2 2 3 3 3 3 2 3 2 5 5 4 5 5 5 5 4 3
3 3 4 4 5 4 4 4 4 4 3 2 2 2 2 1 1 1 1 1 2 2 3 3 3 4 4 2 1 1 4 5 6 5 4 4 4 4
3 4 4 4 5 5 4 4 4 4 3 3 2 2 2 1 1 1 2 2 2 2 2 2 3 3 3 4 3 1 3 6 5 5 4 3 3 4
4 4 4 4 4 5 4 4 3 3 3 3 2 2 2 1 1 1 1 2 2 2 3 3 2 3 4 4 4 3 3 4 5 4 5 5 4 3
5 5 5 5 4 4 4 4 3 3 3 3 3 2 2 1 1 1 1 2 2 2 2 2 3 3 2 3 5 5 4 5 6 8 6 5 4 5
5 5 5 5 4 4 3 3 3 3 3 3 2 2 2 1 1 1 1 2 2 2 3 3 3 2 3 4 5 5 6 6 4 5 4 5 6 6
Wind_Direction
224 225 228 228 224 224 220 213 219 243 245 227 218 210 206 208 209 212 215 216 219 223 226 227 225 221 221 226 229 230 227 230 241 244 240 238 243 248
226 227 232 235 233 227 226 228 227 235 251 233 228 218 203 214 215 216 220 220 220 222 222 219 218 217 217 218 220 220 218 221 232 242 239 238 238 239
235 234 236 235 239 235 230 228 231 233 251 254 238 226 208 210 215 216 217 215 217 220 221 217 215 215 214 214 213 214 216 219 226 235 236 235 237 237
238 241 244 242 240 241 237 234 234 231 239 251 253 237 233 216 212 217 221 224 221 222 220 220 218 216 214 212 212 212 211 213 220 227 231 230 232 237
239 239 242 240 241 243 244 242 241 244 240 244 249 247 250 223 213 226 225 226 229 223 219 220 220 219 215 213 212 209 204 207 212 219 224 225 226 231
252 247 244 241 244 243 244 244 246 246 241 239 244 243 249 231 210 217 228 223 229 227 222 220 220 220 217 214 209 204 202 206 207 210 212 214 217 216
261 256 255 255 257 254 252 248 245 245 246 242 239 240 237 224 217 212 231 232 237 219 212 215 211 213 211 212 206 200 200 205 206 205 204 206 207 199
270 272 272 263 265 265 260 255 248 242 241 245 245 239 236 229 219 216 223 228 240 206 200 218 204 210 210 206 205 202 202 205 207 203 200 203 203 195
277 276 280 279 273 264 262 260 256 253 246 241 248 248 240 230 216 218 221 225 236 207 196 221 207 215 210 209 205 204 203 205 205 201 200 199 195 190
299 286 284 282 277 275 269 263 258 257 253 245 246 251 245 232 222 218 220 228 260 213 190 217 207 215 211 203 204 205 204 206 205 201 197 193 191 187
310 310 304 293 296 295 278 269 268 266 262 254 257 260 257 244 234 218 204 205 235 224 196 192 190 197 213 214 204 204 206 205 202 200 195 189 185 177
315 311 312 312 309 307 285 272 268 268 268 263 260 261 250 236 229 217 204 207 212 221 194 173 171 156 185 215 201 198 201 202 195 192 190 184 178 167
312 311 312 319 313 308 296 277 280 285 269 263 265 262 254 242 228 221 215 208 205 220 185 167 170 170 172 174 191 197 185 179 182 182 183 181 179 171
306 307 309 318 315 310 301 300 302 297 279 274 271 267 261 249 238 232 232 234 217 212 184 171 171 177 168 174 187 177 177 171 165 164 165 176 178 178
305 312 317 322 319 309 312 317 309 288 275 272 271 275 276 261 240 226 242 84 53 118 173 187 174 173 174 175 166 162 162 175 168 160 161 164 167 166
314 316 319 321 322 319 317 312 302 292 286 276 281 289 296 278 239 202 179 142 108 40 50 100 151 161 168 161 163 165 163 168 171 164 153 152 156 157
320 318 324 327 328 326 322 314 308 303 298 301 295 303 299 278 270 251 184 173 173 176 153 94 94 88 84 134 156 162 156 153 161 157 152 154 162 165
331 329 328 324 320 319 316 316 314 307 302 303 298 286 283 274 278 294 207 195 184 177 165 150 132 106 74 28 50 154 152 150 148 150 147 151 164 164
333 324 320 319 316 312 310 309 309 309 305 290 281 279 278 274 251 233 215 199 184 172 167 163 162 155 159 164 36 97 150 147 145 148 154 151 163 167
331 322 317 316 313 307 303 304 306 311 310 302 296 289 274 262 249 232 212 199 186 164 160 171 182 174 174 160 137 98 132 147 149 153 145 120 105 116
324 320 315 311 310 308 305 303 303 305 310 311 310 310 293 265 245 235 216 199 180 169 172 183 164 115 98 103 105 97 91 101 123 143 141 132 129 138
320 313 310 308 307 306 306 306 309 308 307 304 306 305 299 280 249 221 206 189 188 178 160 139 131 123 117 135 135 129 118 100 91 94 96 124 151 168
314 310 307 304 301 300 300 302 304 304 301 298 301 300 294 285 269 216 196 186 173 161 144 136 131 116 112 125 130 130 129 125 115 105 83 92 108 116